SCP
0 0 0 0 0 0 0 0 0 0 0 0 0 0 0 0 0 0 0 0 0 0 0 0 0 0 0 0 0 0 0 0 0 0 0 0 0 0
0 0 0 0 0 0 0 0 0 0 0 0 0 0 0 0 0 0 0 0 0 0 0 0 0 0 0 0 0 0 0 0 0 0 0 0 0 0
0 0 0 0 0 0 0 0 0 0 0 0 0 0 0 0 0 0 0 0 0 0 0 0 0 0 0 0 0 0 0 0 0 0 0 0 0 0
0 0 0 0 0 0 0 0 0 0 0 0 0 0 0 0 0 0 0 0 0 0 0 0 0 0 0 0 0 0 0 0 0 0 0 0 0 0
0 0 0 0 0 0 0 0 0 0 0 0 0 0 0 0 0 0 0 0 0 0 0 0 0 0 0 0 0 0 0 0 0 0 0 0 0 0
0 0 0 0 0 0 0 0 0 0 0 0 0 0 0 0 0 0 0 0 0 0 0 0 0 0 0 0 0 0 0 0 0 0 0 0 0 0
0 0 0 0 0 0 0 0 0 0 0 0 0 0 0 0 0 0 0 0 0 0 0 0 0 0 0 0 0 0 0 0 0 0 0 0 0 0
0 0 0 0 0 0 0 0 0 0 0 0 0 0 0 0 0 0 0 0 0 0 0 0 0 0 0 0 0 0 0 0 0 0 0 0 0 0
0 0 0 0 0 0 0 0 0 0 0 0 0 0 0 0 0 0 0 0 0 0 0 0 0 0 0 0 0 0 0 0 0 0 0 0 0 0
0 0 0 0 0 0 0 0 0 0 0 0 0 0 0 0 0 0 0 0 0 0 0 0 0 0 0 0 0 0 0 0 0 0 0 0 0 0
0 0 0 0 0 0 0 0 0 0 0 0 0 0 0 0 0 0 0 0 0 0 0 0 0 0 0 0 0 0 0 0 0 0 0 0 0 0
0 0 0 0 0 0 0 0 0 0 0 0 0 0 0 0 0 0 0 0 0 0 0 0 0 0 0 0 0 0 0 0 0 0 0 0 0 0
0 0 0 0 0 0 0 0 0 0 0 0 0 0 0 0 0 0 0 0 0 0 0 0 0 0 0 0 0 0 0 0 0 0 0 0 0 0
0 0 0 0 0 0 0 0 0 0 0 0 0 0 0 0 0 0 0 0 0 0 0 0 0 0 0 0 0 0 0 0 0 0 0 0 0 0
0 0 0 0 0 0 0 0 0 0 0 0 0 0 0 0 0 0 0 0 0 0 0 0 0 0 0 0 0 0 0 0 0 0 0 0 0 0
0 0 0 0 0 0 0 0 0 0 0 0 0 0 0 0 0 0 0 0 0 0 0 0 0 0 0 0 0 0 0 0 0 0 0 0 0 0
0 0 0 0 0 0 0 0 0 0 0 0 0 0 0 0 0 0 0 0 0 0 0 0 0 0 0 0 0 0 0 0 0 0 0 0 0 0
0 0 0 0 0 0 0 0 0 0 0 0 0 0 0 0 0 0 0 0 0 0 0 0 0 0 0 0 0 0 0 0 0 0 0 0 0 0
0 0 0 0 0 0 0 0 0 0 0 0 0 0 0 0 0 0 0 0 0 0 0 0 0 0 0 0 0 0 0 0 0 0 0 0 0 0
0 0 0 0 0 0 0 0 0 0 0 0 0 0 0 0 0 0 0 0 0 0 0 0 0 0 0 0 0 0 0 0 0 0 0 0 0 0
0 0 0 0 0 0 0 0 0 0 0 0 0 0 0 0 0 0 0 0 0 0 0 0 0 0 0 0 0 0 0 0 0 0 0 0 0 0
0 0 0 0 0 0 0 0 0 0 0 0 0 0 0 0 0 0 0 0 0 0 0 0 0 0 0 0 0 0 0 0 0 0 0 0 0 0
0 0 0 0 0 0 0 0 0 0 0 0 0 0 0 0 0 0 0 0 0 0 0 0 0 0 0 0 0 0 0 0 0 0 0 0 0 0
Wind_Speed
1 0 1 1 1 1 1 1 1 2 3 4 3 1 2 2 4 2 2 3 5 6 8 10 12 14 16 17 18 19 18 17 16 15 15 15 15 15
2 2 2 1 1 1 1 1 2 3 4 4 3 2 3 3 4 3 3 6 7 8 10 12 13 14 15 15 15 15 15 14 14 14 13 13 13 13
2 2 2 2 1 1 1 1 3 4 6 5 3 2 4 4 3 3 3 3 4 8 10 11 12 13 13 14 14 14 14 14 14 14 14 14 14 14
1 2 3 3 4 3 2 2 3 4 5 5 3 2 4 4 4 4 4 4 3 7 9 10 11 12 12 12 12 13 13 13 13 13 14 14 14 14
3 4 4 4 4 3 3 4 3 3 3 4 3 2 2 2 3 3 3 2 4 7 8 8 10 11 11 11 12 12 12 12 12 13 13 13 13 14
5 5 5 4 4 5 4 5 5 4 3 2 2 2 1 2 3 3 3 2 2 4 6 7 9 11 11 12 13 13 13 14 14 13 14 14 14 14
5 5 6 7 7 5 4 5 6 4 4 2 2 1 1 1 2 2 3 2 1 1 3 3 4 5 7 11 14 15 15 15 15 15 15 15 15 16
6 6 6 8 9 9 9 9 8 6 5 4 3 3 2 1 1 2 3 3 2 0 2 2 3 4 5 6 11 15 16 16 16 16 16 16 16 16
6 6 7 8 9 7 8 10 10 12 10 4 4 5 4 4 2 2 2 2 2 2 2 2 2 3 3 5 10 12 13 14 14 14 15 15 15 15
6 6 6 8 9 7 7 8 7 7 7 5 3 3 3 4 3 1 1 2 1 0 1 2 2 3 3 3 8 10 11 10 11 11 11 12 13 13
5 6 6 6 11 11 9 8 9 8 8 8 5 5 6 7 5 3 2 2 1 0 0 1 1 2 2 3 5 10 10 10 10 9 8 8 8 8
4 5 9 9 11 11 7 7 8 7 8 8 7 7 6 6 6 3 2 1 1 1 1 1 1 1 2 2 3 4 5 7 9 8 7 6 6 4
4 5 5 12 12 11 7 5 5 5 5 6 6 6 6 5 4 3 1 1 1 1 2 1 1 1 1 1 1 3 4 3 4 4 6 7 7 5
3 4 5 12 12 12 8 9 11 8 5 5 5 5 5 5 5 5 3 1 2 3 3 2 2 2 1 1 1 1 2 2 2 2 3 5 5 4
3 7 9 11 10 8 10 11 8 5 5 5 5 5 5 5 5 5 5 4 3 3 2 2 2 2 2 2 2 1 1 1 1 1 2 2 2 2
5 7 9 9 7 6 7 6 5 4 4 4 4 4 5 6 6 5 4 5 4 4 4 2 2 2 2 2 2 1 1 1 0 1 1 1 1 1
4 4 4 5 6 5 5 5 5 5 6 5 5 6 6 6 5 5 4 4 3 4 5 4 2 1 1 2 1 2 1 0 1 2 3 2 2 2
4 3 3 3 3 3 3 4 4 4 4 4 5 5 5 6 6 5 4 4 4 4 4 4 3 3 3 2 1 2 1 1 1 2 3 3 2 1
2 2 2 2 2 2 2 3 3 3 3 4 4 4 4 4 4 5 6 6 5 5 4 4 3 2 1 3 4 0 2 2 2 2 2 2 3 2
1 0 1 1 1 2 2 2 3 3 4 4 4 4 4 4 4 5 5 6 5 5 5 5 4 3 2 3 3 3 2 1 2 2 2 2 3 3
1 0 1 2 2 2 2 2 3 3 3 3 3 4 4 4 4 4 4 7 6 6 7 6 6 8 4 1 2 3 3 4 2 2 3 3 2 1
3 2 2 3 3 3 2 2 2 2 3 3 3 3 3 3 3 4 4 4 4 4 5 6 7 6 3 2 1 2 3 4 5 4 1 4 5 6
5 4 4 4 3 3 3 3 3 2 1 2 2 2 3 3 3 3 3 3 3 4 4 6 6 5 3 2 2 1 3 3 3 4 4 6 4 2
Wind_Direction
358 267 213 204 196 186 186 180 179 259 278 271 259 220 172 165 173 155 140 136 118 104 99 103 113 124 133 142 149 156 160 167 174 181 186 193 199 206
354 349 334 311 301 252 220 211 201 225 254 260 251 214 190 178 171 157 150 145 134 123 116 115 118 123 129 137 144 151 160 169 176 182 188 194 199 206
322 322 319 305 305 308 283 246 223 216 240 262 254 220 186 180 160 152 143 143 148 144 137 134 134 135 139 143 151 162 171 177 183 188 193 198 203 209
319 19 10 17 15 356 336 299 264 236 226 249 254 219 203 190 170 161 156 161 159 166 157 154 154 156 159 163 170 177 184 189 193 197 202 206 210 215
60 63 43 39 21 355 349 339 314 293 245 235 251 229 205 169 155 158 158 144 175 176 175 175 178 179 180 185 191 195 200 204 207 210 213 216 220 222
63 58 41 31 12 356 359 348 334 325 310 270 258 244 208 165 146 147 144 138 172 170 180 188 196 199 201 203 207 209 213 216 218 221 222 224 226 228
50 43 35 21 6 359 354 343 344 343 343 346 335 353 35 123 170 149 144 131 102 127 150 182 187 198 210 218 219 220 219 220 221 222 224 226 227 229
38 23 25 22 8 12 18 23 24 15 4 7 7 17 13 5 98 123 128 134 158 177 142 179 170 188 205 208 217 220 222 222 222 223 224 226 229 230
43 35 38 26 21 15 15 19 18 19 24 19 24 11 3 358 28 91 111 131 159 179 143 178 182 186 197 202 203 212 219 221 222 223 224 226 229 231
46 44 49 34 22 24 26 18 9 6 6 18 22 5 7 9 28 52 115 113 101 98 156 190 200 204 196 204 201 195 198 205 210 215 219 224 229 233
38 40 43 37 20 32 34 19 12 3 2 9 12 12 13 19 20 37 41 66 61 321 181 185 216 217 200 204 208 200 190 188 189 191 195 202 210 216
20 22 31 30 24 32 36 26 14 348 350 3 8 3 359 356 9 29 34 54 43 314 249 187 229 229 251 209 189 194 198 195 183 174 165 160 159 159
28 7 0 10 18 21 29 28 357 344 357 13 16 5 356 350 344 343 338 135 117 281 261 181 253 249 248 261 208 196 197 193 190 173 153 146 153 154
27 353 347 4 9 8 10 5 11 19 17 15 18 7 357 348 335 326 310 263 214 230 250 194 215 217 220 255 257 231 210 203 199 184 156 133 138 155
6 358 0 5 3 2 3 9 17 23 25 22 9 354 337 333 344 345 340 333 316 287 263 218 217 230 208 220 231 242 264 270 217 172 144 130 130 126
359 350 355 1 6 2 5 11 19 26 39 28 0 345 350 357 360 359 351 343 338 322 317 296 270 234 230 220 196 212 220 264 286 111 91 74 73 102
349 360 4 359 1 1 9 15 18 25 33 27 17 9 5 4 355 354 356 350 343 324 319 326 335 313 246 183 178 225 202 199 179 137 110 84 50 66
28 6 348 349 355 2 14 18 25 28 24 29 26 16 9 5 360 353 357 357 341 327 322 320 336 351 355 342 136 171 178 168 158 143 127 120 131 83
32 350 344 352 6 22 29 36 27 13 27 42 36 20 14 12 10 7 6 360 349 340 333 336 344 355 345 307 311 14 167 156 128 131 144 135 159 173
20 330 2 27 48 54 44 43 35 27 31 33 29 22 20 20 19 13 11 6 353 347 349 354 354 333 279 260 281 314 25 108 136 142 131 83 74 87
246 189 145 119 106 94 76 68 66 55 44 38 28 20 15 22 18 9 6 6 10 3 358 347 324 312 289 317 330 329 345 9 31 160 143 123 117 136
204 189 163 145 136 124 110 97 80 67 55 49 32 17 9 15 10 3 4 4 359 356 343 333 334 345 5 14 342 325 334 347 360 23 94 160 161 181
193 183 171 158 152 147 138 123 115 104 82 65 46 25 17 5 350 348 343 348 350 350 348 347 349 352 351 349 337 334 354 360 356 358 349 348 335 255